Time,TemperatureF,DewpointF,PressureIn,WindDirection,WindDirectionDegrees,WindSpeedMPH,WindSpeedGustMPH,Humidity,HourlyPrecipIn,Conditions,Clouds,dailyrainin,SoftwareType,DateUTC
2013-12-16 00:01:00,32.0,24.3,29.87,West,276,6.0,10.0,73,0.00,,---,0.00,VWS V14.00,2013-12-16 05:01:00,
2013-12-16 00:02:00,32.0,24.3,29.87,West,259,6.0,10.0,73,0.00,,---,0.00,VWS V14.00,2013-12-16 05:02:00,
2013-12-16 00:03:00,32.0,24.3,29.87,West,278,7.0,10.0,73,0.00,,---,0.00,VWS V14.00,2013-12-16 05:03:00,
2013-12-16 00:05:00,32.0,24.3,29.87,West,268,6.0,10.0,73,0.00,,---,0.00,VWS V14.00,2013-12-16 05:05:00,
2013-12-16 00:10:00,32.0,24.3,29.87,West,266,6.0,10.0,73,0.00,,---,0.00,VWS V14.00,2013-12-16 05:10:00,
2013-12-16 00:15:00,32.0,24.0,29.87,West,262,9.0,12.0,72,0.00,,---,0.00,VWS V14.00,2013-12-16 05:15:00,
2013-12-16 00:20:00,32.1,24.4,29.87,West,266,11.0,13.0,73,0.00,,---,0.00,VWS V14.00,2013-12-16 05:20:00,
2013-12-16 00:25:00,32.2,24.5,29.87,WSW,250,9.0,14.0,73,0.00,,---,0.00,VWS V14.00,2013-12-16 05:25:00,
2013-12-16 00:30:00,32.2,24.2,29.87,West,260,9.0,12.0,72,0.00,,---,0.00,VWS V14.00,2013-12-16 05:30:00,
2013-12-16 00:35:00,32.2,24.5,29.87,West,265,10.0,15.0,73,0.00,,---,0.00,VWS V14.00,2013-12-16 05:35:00,
2013-12-16 00:40:00,32.1,24.4,29.87,West,262,6.0,15.0,73,0.00,,---,0.00,VWS V14.00,2013-12-16 05:40:00,
2013-12-16 00:45:00,32.0,24.3,29.87,West,261,10.0,15.0,73,0.00,,---,0.00,VWS V14.00,2013-12-16 05:45:00,
2013-12-16 00:50:00,31.9,24.2,29.87,West,266,9.0,15.0,73,0.00,,---,0.00,VWS V14.00,2013-12-16 05:50:00,
2013-12-16 00:55:00,31.8,24.1,29.87,West,269,7.0,15.0,73,0.00,,---,0.00,VWS V14.00,2013-12-16 05:55:00,
2013-12-16 01:00:00,31.8,24.5,29.87,West,263,10.0,13.0,74,0.00,,---,0.00,VWS V14.00,2013-12-16 06:00:00,
2013-12-16 01:05:00,31.8,24.5,29.87,WNW,289,10.0,15.0,74,0.00,,---,0.00,VWS V14.00,2013-12-16 06:05:00,
2013-12-16 01:10:00,31.9,24.6,29.88,West,272,6.0,15.0,74,0.00,,---,0.00,VWS V14.00,2013-12-16 06:10:00,
2013-12-16 01:16:00,31.9,24.6,29.87,WSW,257,13.0,15.0,74,0.00,,---,0.00,VWS V14.00,2013-12-16 06:16:00,
2013-12-16 01:21:00,31.9,24.9,29.88,WSW,257,11.0,15.0,75,0.00,,---,0.00,VWS V14.00,2013-12-16 06:21:00,
2013-12-16 01:26:00,31.9,24.9,29.88,West,265,9.0,15.0,75,0.00,,---,0.00,VWS V14.00,2013-12-16 06:26:00,
2013-12-16 01:31:00,31.8,24.8,29.88,West,264,10.0,10.0,75,0.00,,---,0.00,VWS V14.00,2013-12-16 06:31:00,
2013-12-16 01:36:00,31.9,24.9,29.88,West,261,7.0,15.0,75,0.00,,---,0.00,VWS V14.00,2013-12-16 06:36:00,
2013-12-16 01:41:00,31.9,24.9,29.88,West,268,7.0,15.0,75,0.00,,---,0.00,VWS V14.00,2013-12-16 06:41:00,
2013-12-16 01:46:00,31.8,25.1,29.88,West,263,10.0,15.0,76,0.00,,---,0.00,VWS V14.00,2013-12-16 06:46:00,
2013-12-16 01:51:00,31.9,24.9,29.88,West,279,11.0,15.0,75,0.00,,---,0.00,VWS V14.00,2013-12-16 06:51:00,
2013-12-16 01:56:00,31.9,24.9,29.88,WSW,255,10.0,17.0,75,0.00,,---,0.00,VWS V14.00,2013-12-16 06:56:00,
2013-12-16 02:01:00,32.0,25.0,29.88,West,266,10.0,13.0,75,0.00,,---,0.00,VWS V14.00,2013-12-16 07:01:00,
2013-12-16 02:06:00,32.1,24.8,29.89,WSW,252,9.0,15.0,74,0.00,,---,0.00,VWS V14.00,2013-12-16 07:06:00,
2013-12-16 02:11:00,32.2,25.2,29.89,West,268,11.0,15.0,75,0.00,,---,0.00,VWS V14.00,2013-12-16 07:11:00,
2013-12-16 02:16:00,32.4,25.0,29.89,West,269,11.0,15.0,74,0.00,,---,0.00,VWS V14.00,2013-12-16 07:16:00,
2013-12-16 02:21:00,32.3,25.3,29.89,West,270,12.0,15.0,75,0.00,,---,0.00,VWS V14.00,2013-12-16 07:21:00,
2013-12-16 02:27:00,32.3,25.3,29.90,WNW,283,10.0,15.0,75,0.00,,---,0.00,VWS V14.00,2013-12-16 07:27:00,
2013-12-16 02:32:00,32.0,25.0,29.90,West,279,11.0,14.0,75,0.00,,---,0.00,VWS V14.00,2013-12-16 07:32:00,
2013-12-16 02:37:00,31.9,24.9,29.90,West,277,12.0,15.0,75,0.00,,---,0.00,VWS V14.00,2013-12-16 07:37:00,
2013-12-16 02:42:00,31.9,24.9,29.90,West,276,11.0,16.0,75,0.00,,---,0.00,VWS V14.00,2013-12-16 07:42:00,
2013-12-16 02:47:00,32.0,25.0,29.90,West,272,12.0,16.0,75,0.00,,---,0.00,VWS V14.00,2013-12-16 07:47:00,
2013-12-16 02:52:00,32.1,25.1,29.90,WNW,288,11.0,16.0,75,0.00,,---,0.00,VWS V14.00,2013-12-16 07:52:00,
2013-12-16 02:57:00,32.1,25.4,29.91,West,264,9.0,16.0,76,0.00,,---,0.00,VWS V14.00,2013-12-16 07:57:00,
2013-12-16 03:02:00,32.2,25.2,29.91,West,281,8.0,15.0,75,0.00,,---,0.00,VWS V14.00,2013-12-16 08:02:00,
2013-12-16 03:07:00,32.5,25.8,29.91,WNW,298,16.0,16.0,76,0.00,,---,0.00,VWS V14.00,2013-12-16 08:07:00,
2013-12-16 03:12:00,32.8,26.1,29.91,WNW,298,12.0,17.0,76,0.00,,---,0.00,VWS V14.00,2013-12-16 08:12:00,
2013-12-16 03:17:00,32.9,25.5,29.91,WNW,285,13.0,17.0,74,0.00,,---,0.00,VWS V14.00,2013-12-16 08:17:00,
2013-12-16 03:22:00,32.9,25.9,29.91,WNW,289,13.0,17.0,75,0.00,,---,0.00,VWS V14.00,2013-12-16 08:22:00,
2013-12-16 03:27:00,32.7,25.7,29.91,WNW,299,12.0,17.0,75,0.00,,---,0.00,VWS V14.00,2013-12-16 08:27:00,
2013-12-16 03:32:00,32.8,26.1,29.91,WNW,297,17.0,17.0,76,0.00,,---,0.00,VWS V14.00,2013-12-16 08:32:00,
2013-12-16 03:37:00,33.0,25.3,29.91,WNW,291,11.0,17.0,73,0.00,,---,0.00,VWS V14.00,2013-12-16 08:37:00,
2013-12-16 03:42:00,33.1,26.4,29.91,WNW,289,14.0,17.0,76,0.00,,---,0.00,VWS V14.00,2013-12-16 08:42:00,
2013-12-16 03:47:00,33.7,25.6,29.91,WNW,297,16.0,21.0,72,0.00,,---,0.00,VWS V14.00,2013-12-16 08:47:00,
2013-12-16 03:53:00,33.7,26.0,29.91,WNW,295,16.0,21.0,73,0.00,,---,0.00,VWS V14.00,2013-12-16 08:53:00,
2013-12-16 03:58:00,33.5,26.1,29.91,WNW,299,12.0,21.0,74,0.00,,---,0.00,VWS V14.00,2013-12-16 08:58:00,
2013-12-16 04:03:00,33.7,26.0,29.92,WNW,283,15.0,16.0,73,0.00,,---,0.00,VWS V14.00,2013-12-16 09:03:00,
2013-12-16 04:08:00,33.7,25.0,29.92,West,269,10.0,18.0,70,0.00,,---,0.00,VWS V14.00,2013-12-16 09:08:00,
2013-12-16 04:13:00,33.8,26.4,29.93,NW,304,17.0,19.0,74,0.00,,---,0.00,VWS V14.00,2013-12-16 09:13:00,
2013-12-16 04:18:00,33.8,25.4,29.93,WNW,300,16.0,20.0,71,0.00,,---,0.00,VWS V14.00,2013-12-16 09:18:00,
2013-12-16 04:23:00,33.9,25.5,29.93,WNW,290,17.0,20.0,71,0.00,,---,0.00,VWS V14.00,2013-12-16 09:23:00,
2013-12-16 04:28:00,33.9,25.2,29.93,WNW,299,18.0,20.0,70,0.00,,---,0.00,VWS V14.00,2013-12-16 09:28:00,
2013-12-16 04:33:00,33.7,25.3,29.93,WNW,300,14.0,19.0,71,0.00,,---,0.00,VWS V14.00,2013-12-16 09:33:00,
2013-12-16 04:38:00,33.6,25.5,29.94,NW,306,13.0,19.0,72,0.00,,---,0.00,VWS V14.00,2013-12-16 09:38:00,
2013-12-16 04:43:00,33.6,24.9,29.94,WNW,295,17.0,21.0,70,0.00,,---,0.00,VWS V14.00,2013-12-16 09:43:00,
2013-12-16 04:48:00,33.5,24.8,29.94,West,272,14.0,21.0,70,0.00,,---,0.00,VWS V14.00,2013-12-16 09:48:00,
2013-12-16 04:53:00,33.4,25.0,29.94,NW,305,15.0,21.0,71,0.00,,---,0.00,VWS V14.00,2013-12-16 09:53:00,
2013-12-16 04:58:00,33.4,24.3,29.94,West,280,15.0,21.0,69,0.00,,---,0.00,VWS V14.00,2013-12-16 09:58:00,
2013-12-16 05:03:00,33.3,24.6,29.94,NW,304,16.0,19.0,70,0.00,,---,0.00,VWS V14.00,2013-12-16 10:03:00,
2013-12-16 05:08:00,33.2,24.5,29.94,WNW,292,13.0,19.0,70,0.00,,---,0.00,VWS V14.00,2013-12-16 10:08:00,
2013-12-16 05:13:00,33.0,24.0,29.95,WNW,301,15.0,19.0,69,0.00,,---,0.00,VWS V14.00,2013-12-16 10:13:00,
2013-12-16 05:19:00,32.8,23.4,29.95,NW,305,12.0,19.0,68,0.00,,---,0.00,VWS V14.00,2013-12-16 10:19:00,
2013-12-16 05:24:00,32.6,23.2,29.96,NW,318,14.0,19.0,68,0.00,,---,0.00,VWS V14.00,2013-12-16 10:24:00,
2013-12-16 05:29:00,32.5,23.8,29.96,NW,318,9.0,19.0,70,0.00,,---,0.00,VWS V14.00,2013-12-16 10:29:00,
2013-12-16 05:34:00,32.3,23.6,29.97,NW,309,15.0,16.0,70,0.00,,---,0.00,VWS V14.00,2013-12-16 10:34:00,
2013-12-16 05:39:00,31.9,23.2,29.97,NNW,332,21.0,26.0,70,0.00,,---,0.00,VWS V14.00,2013-12-16 10:39:00,
2013-12-16 05:44:00,31.5,23.2,29.97,NNW,334,17.0,26.0,71,0.00,,---,0.00,VWS V14.00,2013-12-16 10:44:00,
2013-12-16 05:49:00,31.2,22.2,29.97,NNW,335,13.0,26.0,69,0.00,,---,0.00,VWS V14.00,2013-12-16 10:49:00,
2013-12-16 05:54:00,31.0,22.0,29.98,NNW,330,19.0,26.0,69,0.00,,---,0.00,VWS V14.00,2013-12-16 10:54:00,
2013-12-16 05:59:00,30.7,21.1,29.98,NNW,331,16.0,26.0,67,0.00,,---,0.00,VWS V14.00,2013-12-16 10:59:00,
2013-12-16 06:04:00,30.7,21.4,29.98,NW,320,17.0,21.0,68,0.00,,---,0.00,VWS V14.00,2013-12-16 11:04:00,
2013-12-16 06:09:00,30.7,20.7,29.99,NNW,331,10.0,21.0,66,0.00,,---,0.00,VWS V14.00,2013-12-16 11:09:00,
2013-12-16 06:14:00,30.5,20.5,29.99,NNW,343,13.0,21.0,66,0.00,,---,0.00,VWS V14.00,2013-12-16 11:14:00,
2013-12-16 06:19:00,30.1,20.5,29.99,NNW,331,12.0,21.0,67,0.00,,---,0.00,VWS V14.00,2013-12-16 11:19:00,
2013-12-16 06:24:00,30.1,20.5,29.99,NNW,344,15.0,21.0,67,0.00,,---,0.00,VWS V14.00,2013-12-16 11:24:00,
2013-12-16 06:29:00,29.7,19.0,29.99,NNW,335,13.0,21.0,64,0.00,,---,0.00,VWS V14.00,2013-12-16 11:29:00,
2013-12-16 06:34:00,29.6,18.6,30.00,NNW,335,17.0,17.0,63,0.00,,---,0.00,VWS V14.00,2013-12-16 11:34:00,
2013-12-16 06:40:00,29.4,18.4,30.00,NW,324,14.0,19.0,63,0.00,,---,0.00,VWS V14.00,2013-12-16 11:40:00,
2013-12-16 06:45:00,29.4,19.1,30.01,NW,315,15.0,19.0,65,0.00,,---,0.00,VWS V14.00,2013-12-16 11:45:00,
2013-12-16 06:50:00,29.2,18.2,30.01,NW,306,15.0,21.0,63,0.00,,---,0.00,VWS V14.00,2013-12-16 11:50:00,
2013-12-16 06:55:00,28.9,16.4,30.02,NW,311,18.0,25.0,59,0.00,,---,0.00,VWS V14.00,2013-12-16 11:55:00,
2013-12-16 07:00:00,28.7,15.8,30.02,NW,321,19.0,20.0,58,0.00,,---,0.00,VWS V14.00,2013-12-16 12:00:00,
2013-12-16 07:05:00,28.7,15.4,30.02,NW,321,20.0,23.0,57,0.00,,---,0.00,VWS V14.00,2013-12-16 12:05:00,
2013-12-16 07:10:00,28.6,15.3,30.01,NW,315,24.0,24.0,57,0.00,,---,0.00,VWS V14.00,2013-12-16 12:10:00,
2013-12-16 07:16:00,28.5,16.4,30.01,NW,326,17.0,26.0,60,0.00,,---,0.00,VWS V14.00,2013-12-16 12:16:00,
2013-12-16 07:21:00,28.4,15.5,30.01,NW,315,20.0,26.0,58,0.00,,---,0.00,VWS V14.00,2013-12-16 12:21:00,
2013-12-16 07:26:00,28.5,16.0,30.02,NW,325,17.0,26.0,59,0.00,,---,0.00,VWS V14.00,2013-12-16 12:26:00,
2013-12-16 07:31:00,28.2,14.1,30.02,NW,314,13.0,23.0,55,0.00,,---,0.00,VWS V14.00,2013-12-16 12:31:00,
2013-12-16 07:36:00,28.1,14.8,30.03,NNW,335,19.0,23.0,57,0.00,,---,0.00,VWS V14.00,2013-12-16 12:36:00,
2013-12-16 07:41:00,28.0,13.9,30.03,NW,324,16.0,23.0,55,0.00,,---,0.00,VWS V14.00,2013-12-16 12:41:00,
2013-12-16 07:46:00,28.1,15.6,30.03,NNW,339,14.0,23.0,59,0.00,,---,0.00,VWS V14.00,2013-12-16 12:46:00,
2013-12-16 07:51:00,28.0,15.1,30.04,NW,312,14.0,23.0,58,0.00,,---,0.00,VWS V14.00,2013-12-16 12:51:00,
2013-12-16 07:56:00,28.0,14.8,30.04,NNW,342,12.0,23.0,57,0.00,,---,0.00,VWS V14.00,2013-12-16 12:56:00,
2013-12-16 08:01:00,28.0,13.9,30.05,NNW,333,13.0,20.0,55,0.00,,---,0.00,VWS V14.00,2013-12-16 13:01:00,
2013-12-16 08:06:00,28.2,15.3,30.05,NW,314,12.0,20.0,58,0.00,,---,0.00,VWS V14.00,2013-12-16 13:06:00,
2013-12-16 08:12:00,28.0,15.1,30.06,NW,317,15.0,20.0,58,0.00,,---,0.00,VWS V14.00,2013-12-16 13:12:00,
2013-12-16 08:17:00,28.1,16.0,30.05,NNW,332,19.0,25.0,60,0.00,,---,0.00,VWS V14.00,2013-12-16 13:17:00,
2013-12-16 08:22:00,27.9,15.1,30.05,NW,316,20.0,25.0,58,0.00,,---,0.00,VWS V14.00,2013-12-16 13:22:00,
2013-12-16 08:27:00,28.1,16.0,30.06,NNW,331,17.0,26.0,60,0.00,,---,0.00,VWS V14.00,2013-12-16 13:27:00,
2013-12-16 08:32:00,28.1,16.4,30.06,NNW,339,16.0,20.0,61,0.00,,---,0.00,VWS V14.00,2013-12-16 13:32:00,
2013-12-16 08:37:00,28.1,16.4,30.06,NNW,340,16.0,23.0,61,0.00,,---,0.00,VWS V14.00,2013-12-16 13:37:00,
2013-12-16 08:42:00,27.9,15.8,30.07,NNW,337,20.0,24.0,60,0.00,,---,0.00,VWS V14.00,2013-12-16 13:42:00,
2013-12-16 08:47:00,28.1,16.4,30.07,NW,319,18.0,24.0,61,0.00,,---,0.00,VWS V14.00,2013-12-16 13:47:00,
2013-12-16 08:52:00,28.2,16.1,30.08,NNW,330,14.0,24.0,60,0.00,,---,0.00,VWS V14.00,2013-12-16 13:52:00,
2013-12-16 08:57:00,28.3,15.0,30.08,NNW,345,15.0,24.0,57,0.00,,---,0.00,VWS V14.00,2013-12-16 13:57:00,
2013-12-16 09:02:00,28.3,15.4,30.08,NNW,343,14.0,21.0,58,0.00,,---,0.00,VWS V14.00,2013-12-16 14:02:00,
2013-12-16 09:07:00,28.3,15.8,30.07,NNW,346,16.0,21.0,59,0.00,,---,0.00,VWS V14.00,2013-12-16 14:07:00,
2013-12-16 09:12:00,28.4,16.3,30.08,NNW,328,16.0,21.0,60,0.00,,---,0.00,VWS V14.00,2013-12-16 14:12:00,
2013-12-16 09:17:00,28.4,15.5,30.08,NW,325,15.0,21.0,58,0.00,,---,0.00,VWS V14.00,2013-12-16 14:17:00,
2013-12-16 09:22:00,28.3,15.4,30.09,NNW,335,17.0,21.0,58,0.00,,---,0.00,VWS V14.00,2013-12-16 14:22:00,
2013-12-16 09:27:00,28.4,15.5,30.09,NNW,328,19.0,21.0,58,0.00,,---,0.00,VWS V14.00,2013-12-16 14:27:00,
2013-12-16 09:32:00,28.4,14.7,30.09,NW,319,13.0,18.0,56,0.00,,---,0.00,VWS V14.00,2013-12-16 14:32:00,
2013-12-16 09:37:00,28.5,14.8,30.09,NNW,331,13.0,21.0,56,0.00,,---,0.00,VWS V14.00,2013-12-16 14:37:00,
2013-12-16 09:43:00,28.4,14.7,30.08,NNW,337,13.0,21.0,56,0.00,,---,0.00,VWS V14.00,2013-12-16 14:43:00,
2013-12-16 09:48:00,28.5,15.2,30.08,NNW,343,16.0,21.0,57,0.00,,---,0.00,VWS V14.00,2013-12-16 14:48:00,
2013-12-16 09:53:00,28.4,15.9,30.08,NNW,328,17.0,21.0,59,0.00,,---,0.00,VWS V14.00,2013-12-16 14:53:00,
2013-12-16 09:58:00,28.4,15.5,30.09,NW,310,19.0,23.0,58,0.00,,---,0.00,VWS V14.00,2013-12-16 14:58:00,
2013-12-16 10:03:00,28.5,15.6,30.08,NW,317,19.0,23.0,58,0.00,,---,0.00,VWS V14.00,2013-12-16 15:03:00,
2013-12-16 10:08:00,28.4,15.1,30.09,NNW,333,16.0,23.0,57,0.00,,---,0.00,VWS V14.00,2013-12-16 15:08:00,
2013-12-16 10:13:00,28.5,14.8,30.09,NW,323,15.0,23.0,56,0.00,,---,0.00,VWS V14.00,2013-12-16 15:13:00,
2013-12-16 10:18:00,28.3,13.8,30.09,NW,314,13.0,23.0,54,0.00,,---,0.00,VWS V14.00,2013-12-16 15:18:00,
2013-12-16 10:23:00,28.2,13.7,30.09,NW,320,14.0,23.0,54,0.00,,---,0.00,VWS V14.00,2013-12-16 15:23:00,
2013-12-16 10:28:00,28.3,13.4,30.09,NW,311,16.0,23.0,53,0.00,,---,0.00,VWS V14.00,2013-12-16 15:28:00,
2013-12-16 10:33:00,28.3,12.5,30.09,NW,315,16.0,22.0,51,0.00,,---,0.00,VWS V14.00,2013-12-16 15:33:00,
2013-12-16 10:38:00,28.4,13.9,30.09,NW,322,17.0,22.0,54,0.00,,---,0.00,VWS V14.00,2013-12-16 15:38:00,
2013-12-16 10:43:00,28.5,14.4,30.09,NNW,330,20.0,22.0,55,0.00,,---,0.00,VWS V14.00,2013-12-16 15:43:00,
2013-12-16 10:48:00,28.1,13.6,30.08,NW,320,15.0,22.0,54,0.00,,---,0.00,VWS V14.00,2013-12-16 15:48:00,
2013-12-16 10:53:00,28.0,13.1,30.08,NW,326,12.0,22.0,53,0.00,,---,0.00,VWS V14.00,2013-12-16 15:53:00,
2013-12-16 10:58:00,28.0,14.3,30.08,NNW,336,14.0,22.0,56,0.00,,---,0.00,VWS V14.00,2013-12-16 15:58:00,
2013-12-16 11:03:00,28.1,13.2,30.08,NW,325,16.0,17.0,53,0.00,,---,0.00,VWS V14.00,2013-12-16 16:03:00,
2013-12-16 11:09:00,28.0,12.7,30.08,NNW,335,14.0,18.0,52,0.00,,---,0.00,VWS V14.00,2013-12-16 16:09:00,
2013-12-16 11:14:00,27.9,12.6,30.08,NW,316,15.0,18.0,52,0.00,,---,0.00,VWS V14.00,2013-12-16 16:14:00,
2013-12-16 11:19:00,28.1,12.8,30.08,NW,323,15.0,20.0,52,0.00,,---,0.00,VWS V14.00,2013-12-16 16:19:00,
2013-12-16 11:24:00,28.2,14.9,30.08,NW,308,14.0,20.0,57,0.00,,---,0.00,VWS V14.00,2013-12-16 16:24:00,
2013-12-16 11:29:00,28.1,13.2,30.07,NW,316,13.0,20.0,53,0.00,,---,0.00,VWS V14.00,2013-12-16 16:29:00,
2013-12-16 11:34:00,28.0,13.1,30.07,NW,312,15.0,17.0,53,0.00,,---,0.00,VWS V14.00,2013-12-16 16:34:00,
2013-12-16 11:39:00,28.1,12.3,30.07,NW,307,14.0,18.0,51,0.00,,---,0.00,VWS V14.00,2013-12-16 16:39:00,
2013-12-16 11:44:00,28.4,13.5,30.07,NNW,327,13.0,18.0,53,0.00,,---,0.00,VWS V14.00,2013-12-16 16:44:00,
2013-12-16 11:49:00,28.4,12.6,30.07,NW,325,14.0,18.0,51,0.00,,---,0.00,VWS V14.00,2013-12-16 16:49:00,
2013-12-16 11:54:00,28.4,13.0,30.06,NW,314,17.0,18.0,52,0.00,,---,0.00,VWS V14.00,2013-12-16 16:54:00,
2013-12-16 11:59:00,28.4,12.1,30.07,NW,310,10.0,18.0,50,0.00,,---,0.00,VWS V14.00,2013-12-16 16:59:00,
2013-12-16 12:04:00,28.7,15.0,30.07,NNW,333,10.0,12.0,56,0.00,,---,0.00,VWS V14.00,2013-12-16 17:04:00,
2013-12-16 12:09:00,28.8,12.5,30.06,North,350,13.0,17.0,50,0.00,,---,0.00,VWS V14.00,2013-12-16 17:09:00,
2013-12-16 12:14:00,29.0,12.2,30.06,NW,308,10.0,19.0,49,0.00,,---,0.00,VWS V14.00,2013-12-16 17:14:00,
2013-12-16 12:20:00,29.1,13.2,30.06,NW,312,16.0,20.0,51,0.00,,---,0.00,VWS V14.00,2013-12-16 17:20:00,
2013-12-16 12:25:00,29.2,12.0,30.06,NW,311,16.0,20.0,48,0.00,,---,0.00,VWS V14.00,2013-12-16 17:25:00,
2013-12-16 12:30:00,29.4,13.5,30.06,NW,307,16.0,18.0,51,0.00,,---,0.00,VWS V14.00,2013-12-16 17:30:00,
2013-12-16 12:35:00,29.6,12.8,30.06,WNW,299,16.0,19.0,49,0.00,,---,0.00,VWS V14.00,2013-12-16 17:35:00,
2013-12-16 12:40:00,29.8,13.4,30.07,NW,309,13.0,19.0,50,0.00,,---,0.00,VWS V14.00,2013-12-16 17:40:00,
2013-12-16 12:45:00,29.5,11.8,30.06,NW,313,13.0,19.0,47,0.00,,---,0.00,VWS V14.00,2013-12-16 17:45:00,
2013-12-16 12:50:00,29.7,11.9,30.06,North,355,15.0,20.0,47,0.00,,---,0.00,VWS V14.00,2013-12-16 17:50:00,
2013-12-16 12:55:00,29.8,13.9,30.06,NW,324,12.0,20.0,51,0.00,,---,0.00,VWS V14.00,2013-12-16 17:55:00,
2013-12-16 13:00:00,29.8,12.0,30.06,NW,315,17.0,22.0,47,0.00,,---,0.00,VWS V14.00,2013-12-16 18:00:00,
2013-12-16 13:05:00,29.8,11.1,30.06,WNW,303,16.0,23.0,45,0.00,,---,0.00,VWS V14.00,2013-12-16 18:05:00,
2013-12-16 13:10:00,30.0,14.1,30.06,NW,308,20.0,23.0,51,0.00,,---,0.00,VWS V14.00,2013-12-16 18:10:00,
2013-12-16 13:15:00,29.9,10.6,30.06,NNW,334,17.0,23.0,44,0.00,,---,0.00,VWS V14.00,2013-12-16 18:15:00,
2013-12-16 13:20:00,30.0,10.7,30.06,NW,320,17.0,24.0,44,0.00,,---,0.00,VWS V14.00,2013-12-16 18:20:00,
2013-12-16 13:25:00,30.0,12.7,30.06,NNW,331,16.0,24.0,48,0.00,,---,0.00,VWS V14.00,2013-12-16 18:25:00,
2013-12-16 13:31:00,29.9,11.2,30.06,NNW,339,14.0,17.0,45,0.00,,---,0.00,VWS V14.00,2013-12-16 18:31:00,
2013-12-16 13:36:00,29.9,12.1,30.06,NW,320,20.0,20.0,47,0.00,,---,0.00,VWS V14.00,2013-12-16 18:36:00,
2013-12-16 13:41:00,30.1,11.3,30.06,NNW,333,19.0,24.0,45,0.00,,---,0.00,VWS V14.00,2013-12-16 18:41:00,
2013-12-16 13:46:00,30.2,11.9,30.06,NW,320,16.0,24.0,46,0.00,,---,0.00,VWS V14.00,2013-12-16 18:46:00,
2013-12-16 13:51:00,30.3,11.0,30.06,NW,313,14.0,24.0,44,0.00,,---,0.00,VWS V14.00,2013-12-16 18:51:00,
2013-12-16 13:56:00,30.5,11.2,30.06,WNW,299,11.0,24.0,44,0.00,,---,0.00,VWS V14.00,2013-12-16 18:56:00,
2013-12-16 14:01:00,30.6,13.3,30.06,NW,321,13.0,15.0,48,0.00,,---,0.00,VWS V14.00,2013-12-16 19:01:00,
2013-12-16 14:06:00,30.7,12.9,30.06,NNW,339,16.0,19.0,47,0.00,,---,0.00,VWS V14.00,2013-12-16 19:06:00,
2013-12-16 14:11:00,30.7,12.9,30.06,NW,311,13.0,19.0,47,0.00,,---,0.00,VWS V14.00,2013-12-16 19:11:00,
2013-12-16 14:16:00,30.8,12.5,30.06,WNW,301,20.0,24.0,46,0.00,,---,0.00,VWS V14.00,2013-12-16 19:16:00,
2013-12-16 14:21:00,30.8,12.0,30.07,NW,314,18.0,25.0,45,0.00,,---,0.00,VWS V14.00,2013-12-16 19:21:00,
2013-12-16 14:26:00,30.9,13.5,30.07,NW,326,15.0,25.0,48,0.00,,---,0.00,VWS V14.00,2013-12-16 19:26:00,
2013-12-16 14:31:00,30.9,13.1,30.08,NNW,332,15.0,18.0,47,0.00,,---,0.00,VWS V14.00,2013-12-16 19:31:00,
2013-12-16 14:37:00,31.1,13.2,30.08,NW,324,19.0,21.0,47,0.00,,---,0.00,VWS V14.00,2013-12-16 19:37:00,
2013-12-16 14:42:00,31.1,11.8,30.08,NW,316,15.0,23.0,44,0.00,,---,0.00,VWS V14.00,2013-12-16 19:42:00,
2013-12-16 14:47:00,31.3,15.7,30.08,NW,316,16.0,23.0,52,0.00,,---,0.00,VWS V14.00,2013-12-16 19:47:00,
2013-12-16 14:52:00,31.3,12.9,30.08,NW,324,14.0,23.0,46,0.00,,---,0.00,VWS V14.00,2013-12-16 19:52:00,
2013-12-16 14:57:00,31.3,12.9,30.08,WNW,299,16.0,23.0,46,0.00,,---,0.00,VWS V14.00,2013-12-16 19:57:00,
2013-12-16 15:02:00,31.3,12.4,30.09,NW,316,17.0,24.0,45,0.00,,---,0.00,VWS V14.00,2013-12-16 20:02:00,
2013-12-16 15:07:00,31.1,13.2,30.09,NW,314,17.0,25.0,47,0.00,,---,0.00,VWS V14.00,2013-12-16 20:07:00,
2013-12-16 15:12:00,31.0,11.7,30.09,NW,324,14.0,25.0,44,0.00,,---,0.00,VWS V14.00,2013-12-16 20:12:00,
2013-12-16 15:17:00,30.9,12.6,30.09,NNW,338,19.0,25.0,46,0.00,,---,0.00,VWS V14.00,2013-12-16 20:17:00,
2013-12-16 15:22:00,31.0,14.6,30.09,NNW,337,15.0,25.0,50,0.00,,---,0.00,VWS V14.00,2013-12-16 20:22:00,
2013-12-16 15:27:00,31.0,13.1,30.10,NW,319,17.0,25.0,47,0.00,,---,0.00,VWS V14.00,2013-12-16 20:27:00,
2013-12-16 15:32:00,31.0,12.7,30.10,NNW,329,15.0,19.0,46,0.00,,---,0.00,VWS V14.00,2013-12-16 20:32:00,
2013-12-16 15:37:00,30.8,11.5,30.10,NW,324,10.0,19.0,44,0.00,,---,0.00,VWS V14.00,2013-12-16 20:37:00,
2013-12-16 15:42:00,30.9,13.5,30.10,NW,316,17.0,20.0,48,0.00,,---,0.00,VWS V14.00,2013-12-16 20:42:00,
2013-12-16 15:47:00,30.9,13.1,30.11,NW,308,15.0,22.0,47,0.00,,---,0.00,VWS V14.00,2013-12-16 20:47:00,
2013-12-16 15:52:00,30.9,14.0,30.11,NNW,333,11.0,22.0,49,0.00,,---,0.00,VWS V14.00,2013-12-16 20:52:00,
2013-12-16 15:57:00,30.7,12.9,30.11,NW,314,13.0,22.0,47,0.00,,---,0.00,VWS V14.00,2013-12-16 20:57:00,
2013-12-16 16:02:00,30.8,13.4,30.11,NW,326,13.0,16.0,48,0.00,,---,0.00,VWS V14.00,2013-12-16 21:02:00,
2013-12-16 16:08:00,30.7,14.3,30.12,NW,324,15.0,17.0,50,0.00,,---,0.00,VWS V14.00,2013-12-16 21:08:00,
2013-12-16 16:13:00,30.6,12.8,30.12,NW,318,12.0,17.0,47,0.00,,---,0.00,VWS V14.00,2013-12-16 21:13:00,
2013-12-16 16:18:00,30.5,13.2,30.12,NNW,341,13.0,17.0,48,0.00,,---,0.00,VWS V14.00,2013-12-16 21:18:00,
2013-12-16 16:23:00,30.3,11.5,30.13,NNW,327,9.0,17.0,45,0.00,,---,0.00,VWS V14.00,2013-12-16 21:23:00,
2013-12-16 16:28:00,30.2,12.9,30.13,NNW,327,11.0,17.0,48,0.00,,---,0.00,VWS V14.00,2013-12-16 21:28:00,
2013-12-16 16:33:00,30.2,14.3,30.13,NNW,336,11.0,14.0,51,0.00,,---,0.00,VWS V14.00,2013-12-16 21:33:00,
2013-12-16 16:38:00,30.1,12.3,30.13,North,350,11.0,14.0,47,0.00,,---,0.00,VWS V14.00,2013-12-16 21:38:00,
2013-12-16 16:43:00,29.9,11.6,30.13,NNW,337,13.0,14.0,46,0.00,,---,0.00,VWS V14.00,2013-12-16 21:43:00,
2013-12-16 16:48:00,29.8,13.9,30.14,NW,314,12.0,15.0,51,0.00,,---,0.00,VWS V14.00,2013-12-16 21:48:00,
2013-12-16 16:53:00,29.7,12.9,30.14,NNW,331,12.0,15.0,49,0.00,,---,0.00,VWS V14.00,2013-12-16 21:53:00,
2013-12-16 16:58:00,29.6,14.1,30.14,NNW,339,11.0,16.0,52,0.00,,---,0.00,VWS V14.00,2013-12-16 21:58:00,
2013-12-16 17:03:00,29.6,12.8,30.14,NNW,328,11.0,15.0,49,0.00,,---,0.00,VWS V14.00,2013-12-16 22:03:00,
2013-12-16 17:08:00,29.4,12.6,30.15,NW,323,12.0,15.0,49,0.00,,---,0.00,VWS V14.00,2013-12-16 22:08:00,
2013-12-16 17:13:00,29.3,12.1,30.15,NNW,333,8.0,15.0,48,0.00,,---,0.00,VWS V14.00,2013-12-16 22:13:00,
2013-12-16 17:19:00,29.3,13.4,30.15,NNW,328,9.0,15.0,51,0.00,,---,0.00,VWS V14.00,2013-12-16 22:19:00,
2013-12-16 17:24:00,29.2,13.8,30.15,NNW,338,8.0,15.0,52,0.00,,---,0.00,VWS V14.00,2013-12-16 22:24:00,
2013-12-16 17:29:00,29.1,12.3,30.16,NNW,337,7.0,15.0,49,0.00,,---,0.00,VWS V14.00,2013-12-16 22:29:00,
2013-12-16 17:34:00,29.1,11.9,30.15,NNW,343,10.0,10.0,48,0.00,,---,0.00,VWS V14.00,2013-12-16 22:34:00,
2013-12-16 17:39:00,29.1,11.9,30.15,NNW,336,5.0,12.0,48,0.00,,---,0.00,VWS V14.00,2013-12-16 22:39:00,
2013-12-16 17:44:00,29.1,13.2,30.15,North,350,7.0,12.0,51,0.00,,---,0.00,VWS V14.00,2013-12-16 22:44:00,
2013-12-16 17:49:00,29.0,12.7,30.16,North,350,5.0,12.0,50,0.00,,---,0.00,VWS V14.00,2013-12-16 22:49:00,
2013-12-16 17:54:00,28.9,12.6,30.16,NNW,331,7.0,12.0,50,0.00,,---,0.00,VWS V14.00,2013-12-16 22:54:00,
2013-12-16 17:59:00,28.9,11.7,30.16,NNW,332,7.0,12.0,48,0.00,,---,0.00,VWS V14.00,2013-12-16 22:59:00,
2013-12-16 18:04:00,28.9,13.1,30.16,NW,322,6.0,8.0,51,0.00,,---,0.00,VWS V14.00,2013-12-16 23:04:00,
2013-12-16 18:09:00,28.8,13.0,30.16,NW,323,6.0,8.0,51,0.00,,---,0.00,VWS V14.00,2013-12-16 23:09:00,
2013-12-16 18:14:00,28.8,13.8,30.17,NW,311,6.0,8.0,53,0.00,,---,0.00,VWS V14.00,2013-12-16 23:14:00,
2013-12-16 18:19:00,28.8,12.5,30.17,NW,323,4.0,8.0,50,0.00,,---,0.00,VWS V14.00,2013-12-16 23:19:00,
2013-12-16 18:24:00,28.7,12.4,30.17,NNW,328,5.0,8.0,50,0.00,,---,0.00,VWS V14.00,2013-12-16 23:24:00,
2013-12-16 18:29:00,28.7,12.9,30.17,NW,318,5.0,6.0,51,0.00,,---,0.00,VWS V14.00,2013-12-16 23:29:00,
2013-12-16 18:35:00,28.7,12.4,30.17,NW,322,4.0,7.0,50,0.00,,---,0.00,VWS V14.00,2013-12-16 23:35:00,
2013-12-16 18:40:00,28.6,12.8,30.17,NNW,333,5.0,7.0,51,0.00,,---,0.00,VWS V14.00,2013-12-16 23:40:00,
2013-12-16 18:45:00,28.7,13.3,30.17,NNW,345,6.0,7.0,52,0.00,,---,0.00,VWS V14.00,2013-12-16 23:45:00,
2013-12-16 18:50:00,28.5,11.8,30.18,NW,323,7.0,9.0,49,0.00,,---,0.00,VWS V14.00,2013-12-16 23:50:00,
2013-12-16 18:55:00,28.5,11.3,30.18,NW,326,6.0,9.0,48,0.00,,---,0.00,VWS V14.00,2013-12-16 23:55:00,
2013-12-16 19:00:00,28.4,11.2,30.19,NNW,332,5.0,6.0,48,0.00,,---,0.00,VWS V14.00,2013-12-17 00:00:00,
2013-12-16 19:05:00,28.4,12.6,30.19,NW,325,6.0,6.0,51,0.00,,---,0.00,VWS V14.00,2013-12-17 00:05:00,
2013-12-16 19:10:00,28.4,11.7,30.19,North,350,5.0,6.0,49,0.00,,---,0.00,VWS V14.00,2013-12-17 00:10:00,
2013-12-16 19:15:00,28.4,13.0,30.19,NNW,345,5.0,6.0,52,0.00,,---,0.00,VWS V14.00,2013-12-17 00:15:00,
2013-12-16 19:20:00,28.4,11.7,30.19,NNW,337,6.0,6.0,49,0.00,,---,0.00,VWS V14.00,2013-12-17 00:20:00,
2013-12-16 19:25:00,28.3,12.9,30.19,NNW,331,6.0,7.0,52,0.00,,---,0.00,VWS V14.00,2013-12-17 00:25:00,
2013-12-16 19:30:00,28.3,12.9,30.19,NNW,330,6.0,7.0,52,0.00,,---,0.00,VWS V14.00,2013-12-17 00:30:00,
2013-12-16 19:35:00,28.2,12.4,30.19,NNW,343,6.0,8.0,51,0.00,,---,0.00,VWS V14.00,2013-12-17 00:35:00,
2013-12-16 19:41:00,28.1,11.9,30.20,NNW,339,6.0,8.0,50,0.00,,---,0.00,VWS V14.00,2013-12-17 00:41:00,
2013-12-16 19:46:00,28.1,12.8,30.19,North,355,5.0,8.0,52,0.00,,---,0.00,VWS V14.00,2013-12-17 00:46:00,
2013-12-16 19:51:00,27.9,11.7,30.19,North,9,5.0,8.0,50,0.00,,---,0.00,VWS V14.00,2013-12-17 00:51:00,
2013-12-16 19:56:00,28.1,14.0,30.19,NNE,22,9.0,10.0,55,0.00,,---,0.00,VWS V14.00,2013-12-17 00:56:00,
2013-12-16 20:01:00,28.1,12.3,30.19,NNE,27,11.0,11.0,51,0.00,,---,0.00,VWS V14.00,2013-12-17 01:01:00,
2013-12-16 20:06:00,28.2,14.5,30.19,North,360,6.0,11.0,56,0.00,,---,0.00,VWS V14.00,2013-12-17 01:06:00,
2013-12-16 20:11:00,28.1,13.6,30.19,North,355,9.0,11.0,54,0.00,,---,0.00,VWS V14.00,2013-12-17 01:11:00,
2013-12-16 20:16:00,28.1,13.6,30.20,North,355,7.0,11.0,54,0.00,,---,0.00,VWS V14.00,2013-12-17 01:16:00,
2013-12-16 20:21:00,27.9,13.0,30.19,North,7,7.0,11.0,53,0.00,,---,0.00,VWS V14.00,2013-12-17 01:21:00,
2013-12-16 20:26:00,27.9,13.8,30.20,NNW,343,4.0,11.0,55,0.00,,---,0.00,VWS V14.00,2013-12-17 01:26:00,
2013-12-16 20:31:00,27.8,14.6,30.20,NNW,338,3.0,5.0,57,0.00,,---,0.00,VWS V14.00,2013-12-17 01:31:00,
2013-12-16 20:36:00,27.4,14.6,30.20,NNW,342,3.0,5.0,58,0.00,,---,0.00,VWS V14.00,2013-12-17 01:36:00,
2013-12-16 20:41:00,27.2,14.8,30.20,North,355,5.0,5.0,59,0.00,,---,0.00,VWS V14.00,2013-12-17 01:41:00,
2013-12-16 20:46:00,27.1,14.3,30.20,NNE,13,4.0,6.0,58,0.00,,---,0.00,VWS V14.00,2013-12-17 01:46:00,
2013-12-16 20:51:00,27.2,14.4,30.20,NNE,19,3.0,6.0,58,0.00,,---,0.00,VWS V14.00,2013-12-17 01:51:00,
2013-12-16 20:56:00,27.5,14.3,30.20,NNE,19,4.0,6.0,57,0.00,,---,0.00,VWS V14.00,2013-12-17 01:56:00,
2013-12-16 21:01:00,27.6,14.4,30.20,NE,34,4.0,4.0,57,0.00,,---,0.00,VWS V14.00,2013-12-17 02:01:00,
2013-12-16 21:06:00,27.6,12.7,30.20,NNE,27,4.0,6.0,53,0.00,,---,0.00,VWS V14.00,2013-12-17 02:06:00,
2013-12-16 21:11:00,27.6,12.3,30.20,NNE,24,3.0,6.0,52,0.00,,---,0.00,VWS V14.00,2013-12-17 02:11:00,
2013-12-16 21:16:00,27.6,13.1,30.20,NNE,14,4.0,6.0,54,0.00,,---,0.00,VWS V14.00,2013-12-17 02:16:00,
2013-12-16 21:21:00,27.6,12.3,30.20,NNE,20,4.0,6.0,52,0.00,,---,0.00,VWS V14.00,2013-12-17 02:21:00,
2013-12-16 21:26:00,27.5,11.3,30.20,NNE,25,4.0,6.0,50,0.00,,---,0.00,VWS V14.00,2013-12-17 02:26:00,
2013-12-16 21:31:00,27.5,12.6,30.20,NNE,12,3.0,4.0,53,0.00,,---,0.00,VWS V14.00,2013-12-17 02:31:00,
2013-12-16 21:36:00,27.5,11.3,30.20,North,5,3.0,4.0,50,0.00,,---,0.00,VWS V14.00,2013-12-17 02:36:00,
2013-12-16 21:41:00,27.5,11.8,30.21,North,360,3.0,4.0,51,0.00,,---,0.00,VWS V14.00,2013-12-17 02:41:00,
2013-12-16 21:46:00,27.5,11.8,30.21,North,5,4.0,5.0,51,0.00,,---,0.00,VWS V14.00,2013-12-17 02:46:00,
2013-12-16 21:52:00,27.5,13.1,30.21,North,350,3.0,5.0,54,0.00,,---,0.00,VWS V14.00,2013-12-17 02:52:00,
2013-12-16 21:57:00,27.5,11.8,30.21,NW,322,3.0,5.0,51,0.00,,---,0.00,VWS V14.00,2013-12-17 02:57:00,
2013-12-16 22:02:00,27.4,12.5,30.22,NNW,332,4.0,5.0,53,0.00,,---,0.00,VWS V14.00,2013-12-17 03:02:00,
2013-12-16 22:07:00,27.5,12.6,30.22,NW,312,5.0,6.0,53,0.00,,---,0.00,VWS V14.00,2013-12-17 03:07:00,
2013-12-16 22:12:00,27.5,12.2,30.21,NNW,339,6.0,7.0,52,0.00,,---,0.00,VWS V14.00,2013-12-17 03:12:00,
2013-12-16 22:17:00,27.4,13.4,30.21,North,350,7.0,7.0,55,0.00,,---,0.00,VWS V14.00,2013-12-17 03:17:00,
2013-12-16 22:22:00,27.4,13.4,30.21,North,350,5.0,8.0,55,0.00,,---,0.00,VWS V14.00,2013-12-17 03:22:00,
2013-12-16 22:27:00,27.2,12.4,30.21,NNE,20,6.0,8.0,53,0.00,,---,0.00,VWS V14.00,2013-12-17 03:27:00,
2013-12-16 22:32:00,27.2,14.8,30.20,NNE,12,6.0,6.0,59,0.00,,---,0.00,VWS V14.00,2013-12-17 03:32:00,
2013-12-16 22:37:00,27.2,14.4,30.20,NNE,12,5.0,6.0,58,0.00,,---,0.00,VWS V14.00,2013-12-17 03:37:00,
2013-12-16 22:42:00,27.2,14.0,30.21,North,350,5.0,7.0,57,0.00,,---,0.00,VWS V14.00,2013-12-17 03:42:00,
2013-12-16 22:48:00,27.2,13.6,30.21,North,355,5.0,7.0,56,0.00,,---,0.00,VWS V14.00,2013-12-17 03:48:00,
2013-12-16 22:53:00,27.2,13.2,30.21,North,360,3.0,7.0,55,0.00,,---,0.00,VWS V14.00,2013-12-17 03:53:00,
2013-12-16 22:58:00,27.2,14.0,30.21,NNW,345,3.0,7.0,57,0.00,,---,0.00,VWS V14.00,2013-12-17 03:58:00,
2013-12-16 23:03:00,27.1,13.5,30.21,NNW,341,3.0,4.0,56,0.00,,---,0.00,VWS V14.00,2013-12-17 04:03:00,
2013-12-16 23:08:00,27.1,14.7,30.21,NW,318,5.0,5.0,59,0.00,,---,0.00,VWS V14.00,2013-12-17 04:08:00,
2013-12-16 23:13:00,27.1,13.5,30.21,NNW,343,3.0,5.0,56,0.00,,---,0.00,VWS V14.00,2013-12-17 04:13:00,
2013-12-16 23:18:00,27.0,15.0,30.21,North,360,4.0,6.0,60,0.00,,---,0.00,VWS V14.00,2013-12-17 04:18:00,
2013-12-16 23:23:00,26.9,14.5,30.20,NNE,26,5.0,6.0,59,0.00,,---,0.00,VWS V14.00,2013-12-17 04:23:00,
2013-12-16 23:28:00,27.0,14.6,30.20,NE,47,3.0,6.0,59,0.00,,---,0.00,VWS V14.00,2013-12-17 04:28:00,
2013-12-16 23:33:00,27.0,14.6,30.20,NNE,33,5.0,7.0,59,0.00,,---,0.00,VWS V14.00,2013-12-17 04:33:00,
2013-12-16 23:38:00,27.1,14.7,30.20,NE,45,6.0,7.0,59,0.00,,---,0.00,VWS V14.00,2013-12-17 04:38:00,
2013-12-16 23:43:00,27.3,16.0,30.20,NE,38,4.0,7.0,62,0.00,,---,0.00,VWS V14.00,2013-12-17 04:43:00,
2013-12-16 23:48:00,27.4,15.7,30.20,NNE,31,4.0,7.0,61,0.00,,---,0.00,VWS V14.00,2013-12-17 04:48:00,
2013-12-16 23:53:00,27.6,16.7,30.20,NE,37,5.0,7.0,63,0.00,,---,0.00,VWS V14.00,2013-12-17 04:53:00,
2013-12-16 23:58:00,27.6,16.7,30.19,NE,48,5.0,7.0,63,0.00,,---,0.00,VWS V14.00,2013-12-17 04:58:00,